Temp
-14 -15 -15 -16 -16 -17 -17 -17 -18 -18 -17 -17 -18 -18 -18 -19 -19 -20 -20 -20 -18 -17 -16 -15 -15 -15 -14 -14 -16 -13 -12 -12 -12 -11 -11 -11 -12 -12 -12 -11 -11 -11 -11
-15 -15 -15 -16 -16 -16 -17 -17 -17 -18 -18 -17 -17 -18 -18 -18 -19 -19 -19 -19 -19 -17 -16 -15 -15 -15 -14 -14 -14 -14 -13 -12 -12 -11 -12 -12 -12 -12 -12 -11 -11 -11 -11
-15 -15 -15 -16 -16 -16 -16 -17 -17 -18 -18 -17 -17 -17 -17 -17 -18 -18 -19 -19 -19 -19 -16 -16 -15 -15 -14 -14 -13 -13 -12 -12 -12 -12 -12 -12 -11 -12 -11 -11 -11 -11 -11
-15 -15 -15 -16 -16 -16 -17 -16 -17 -18 -17 -17 -17 -17 -17 -17 -18 -18 -18 -19 -19 -19 -18 -16 -15 -15 -14 -14 -13 -13 -14 -13 -12 -12 -11 -12 -12 -12 -11 -11 -11 -11 -11
-15 -15 -15 -15 -16 -16 -17 -17 -17 -17 -17 -18 -18 -17 -17 -17 -17 -18 -18 -18 -18 -19 -19 -17 -16 -15 -15 -14 -14 -14 -13 -14 -13 -12 -12 -12 -12 -11 -11 -12 -12 -11 -11
-15 -15 -15 -15 -16 -16 -16 -17 -17 -17 -17 -18 -18 -18 -17 -17 -17 -17 -18 -18 -17 -18 -18 -18 -17 -16 -15 -15 -14 -14 -13 -13 -14 -13 -12 -13 -12 -12 -11 -11 -13 -13 -11
-15 -15 -15 -15 -16 -16 -16 -17 -17 -17 -18 -18 -18 -18 -17 -17 -17 -17 -17 -18 -17 -17 -18 -18 -18 -16 -15 -15 -14 -14 -14 -13 -13 -14 -13 -12 -12 -12 -11 -11 -12 -12 -12
-15 -15 -16 -16 -16 -16 -17 -17 -17 -17 -18 -18 -18 -18 -18 -17 -17 -17 -17 -17 -17 -18 -18 -18 -18 -18 -17 -15 -14 -14 -14 -13 -13 -13 -15 -13 -13 -12 -12 -11 -12 -12 -11
-15 -15 -16 -16 -16 -16 -17 -17 -17 -17 -18 -18 -18 -18 -18 -18 -18 -18 -18 -17 -17 -17 -17 -18 -18 -18 -18 -18 -15 -15 -14 -14 -13 -13 -14 -15 -14 -13 -12 -12 -12 -12 -12
-16 -16 -16 -17 -17 -17 -17 -17 -17 -17 -18 -19 -18 -18 -18 -18 -17 -18 -18 -18 -18 -18 -17 -17 -17 -17 -17 -18 -18 -16 -15 -14 -14 -14 -13 -15 -14 -14 -12 -12 -12 -12 -12
-16 -17 -17 -17 -17 -17 -18 -18 -18 -18 -18 -19 -19 -19 -18 -18 -18 -18 -17 -18 -18 -18 -17 -17 -17 -17 -17 -17 -19 -18 -16 -14 -14 -14 -13 -14 -14 -14 -12 -12 -12 -12 -12
-17 -17 -18 -17 -18 -18 -18 -19 -19 -18 -19 -20 -19 -19 -19 -19 -19 -19 -18 -18 -18 -17 -17 -17 -17 -18 -17 -17 -17 -19 -18 -15 -14 -14 -13 -13 -14 -14 -13 -12 -12 -12 -12
-17 -17 -17 -18 -18 -19 -19 -19 -19 -19 -19 -20 -19 -19 -19 -19 -19 -20 -20 -19 -19 -18 -20 -22 -21 -20 -19 -18 -17 -18 -19 -17 -15 -14 -14 -13 -13 -13 -13 -13 -12 -12 -12
-16 -16 -16 -17 -18 -19 -20 -20 -19 -19 -19 -20 -19 -19 -19 -19 -20 -20 -21 -21 -21 -23 -24 -25 -24 -24 -23 -20 -18 -17 -19 -18 -16 -15 -14 -14 -13 -13 -14 -13 -13 -13 -12
-16 -16 -16 -17 -18 -19 -19 -20 -20 -19 -20 -20 -20 -20 -20 -20 -21 -21 -22 -22 -23 -24 -25 -25 -26 -26 -26 -23 -19 -18 -18 -19 -18 -15 -14 -14 -13 -13 -14 -14 -13 -12 -12
-16 -17 -18 -19 -19 -19 -19 -20 -20 -20 -21 -20 -20 -20 -20 -20 -21 -22 -23 -23 -24 -25 -25 -25 -26 -27 -26 -23 -20 -19 -18 -19 -18 -16 -14 -14 -13 -13 -14 -15 -13 -13 -12
-17 -18 -19 -20 -19 -19 -20 -20 -20 -20 -21 -20 -20 -20 -20 -21 -22 -23 -24 -24 -25 -25 -25 -26 -27 -27 -26 -24 -22 -20 -18 -19 -18 -16 -15 -14 -13 -13 -13 -13 -14 -13 -13
-19 -20 -20 -20 -20 -20 -21 -20 -20 -20 -21 -20 -20 -20 -20 -21 -21 -23 -24 -25 -25 -25 -25 -26 -28 -28 -27 -26 -24 -21 -20 -20 -19 -18 -16 -14 -13 -13 -13 -13 -13 -13 -13
-20 -20 -20 -20 -20 -20 -21 -20 -20 -21 -21 -20 -20 -20 -20 -21 -22 -23 -25 -25 -25 -25 -26 -27 -28 -29 -28 -27 -25 -23 -21 -20 -19 -18 -16 -14 -14 -13 -13 -14 -14 -14 -13
-21 -20 -21 -21 -21 -20 -20 -20 -21 -22 -21 -21 -20 -20 -21 -21 -23 -24 -25 -26 -26 -25 -26 -27 -29 -29 -28 -28 -25 -24 -22 -21 -19 -20 -17 -16 -14 -13 -13 -13 -15 -15 -13
-21 -21 -21 -20 -21 -20 -21 -21 -21 -22 -21 -21 -21 -21 -21 -22 -23 -24 -25 -26 -26 -26 -27 -28 -29 -29 -29 -28 -25 -24 -22 -20 -19 -18 -18 -17 -16 -13 -13 -14 -13 -14 -15
-22 -21 -21 -22 -21 -21 -21 -21 -22 -21 -21 -21 -21 -21 -22 -23 -24 -24 -26 -26 -26 -27 -28 -29 -29 -29 -29 -28 -25 -23 -22 -20 -20 -20 -17 -15 -15 -13 -13 -13 -13 -14 -14
-22 -21 -21 -22 -21 -21 -21 -22 -22 -21 -21 -21 -21 -21 -22 -23 -24 -25 -26 -26 -26 -27 -28 -29 -29 -29 -28 -27 -25 -23 -22 -21 -21 -20 -20 -18 -16 -14 -13 -13 -14 -14 -13
-22 -22 -22 -22 -21 -21 -21 -22 -21 -21 -21 -21 -21 -22 -23 -23 -24 -26 -26 -26 -27 -27 -28 -29 -30 -29 -28 -27 -25 -23 -22 -22 -22 -21 -19 -19 -18 -14 -14 -14 -13 -14 -14
-22 -22 -22 -21 -21 -21 -22 -22 -21 -21 -21 -21 -21 -22 -23 -23 -24 -26 -26 -26 -27 -27 -28 -28 -29 -28 -27 -26 -24 -23 -22 -22 -22 -20 -19 -19 -18 -16 -14 -14 -13 -13 -14
-22 -23 -22 -22 -21 -21 -22 -22 -21 -21 -21 -21 -21 -22 -23 -24 -25 -26 -26 -26 -27 -27 -27 -27 -28 -28 -27 -26 -24 -23 -22 -22 -22 -21 -22 -19 -19 -17 -15 -14 -14 -15 -13
Height
5708 5700 5693 5686 5678 5670 5663 5655 5647 5638 5629 5621 5614 5609 5607 5607 5608 5609 5609 5612 5617 5626 5634 5642 5652 5659 5666 5677 5683 5691 5705 5715 5724 5729 5737 5745 5752 5758 5766 5774 5779 5785 5792
5702 5695 5687 5680 5673 5665 5657 5650 5643 5635 5626 5618 5610 5605 5602 5602 5602 5602 5603 5606 5609 5615 5624 5631 5640 5649 5657 5666 5676 5685 5693 5704 5716 5724 5729 5736 5744 5751 5757 5764 5772 5778 5785
5696 5689 5681 5674 5667 5659 5652 5645 5637 5629 5622 5614 5608 5601 5596 5595 5597 5597 5598 5599 5602 5605 5612 5620 5629 5638 5646 5655 5665 5674 5683 5694 5705 5714 5719 5727 5735 5743 5750 5756 5764 5771 5780
5691 5685 5677 5668 5660 5653 5646 5639 5631 5624 5616 5609 5603 5596 5591 5589 5589 5590 5591 5592 5594 5596 5601 5608 5615 5626 5634 5644 5652 5663 5672 5682 5694 5703 5710 5717 5727 5736 5742 5749 5757 5764 5774
5685 5677 5669 5661 5653 5645 5638 5632 5624 5617 5610 5604 5597 5591 5585 5579 5579 5582 5583 5584 5585 5586 5590 5596 5603 5611 5621 5631 5640 5649 5660 5671 5681 5694 5697 5704 5713 5723 5734 5744 5752 5758 5769
5677 5671 5662 5654 5645 5637 5629 5623 5617 5609 5602 5596 5590 5584 5577 5570 5568 5570 5574 5575 5577 5578 5581 5585 5591 5596 5606 5618 5627 5637 5647 5659 5669 5679 5685 5694 5703 5714 5726 5735 5744 5754 5763
5669 5660 5653 5645 5636 5628 5620 5612 5606 5600 5593 5587 5582 5576 5569 5563 5558 5557 5561 5565 5568 5570 5572 5575 5579 5584 5592 5603 5612 5623 5634 5645 5660 5667 5674 5683 5696 5705 5718 5726 5735 5744 5754
5659 5652 5644 5636 5628 5619 5611 5602 5595 5588 5582 5576 5571 5566 5560 5554 5548 5546 5548 5551 5555 5558 5561 5564 5567 5571 5575 5585 5597 5607 5620 5631 5644 5656 5663 5673 5682 5693 5704 5716 5726 5733 5741
5648 5640 5633 5625 5616 5608 5600 5591 5583 5576 5570 5565 5559 5554 5549 5543 5536 5535 5534 5537 5540 5542 5546 5550 5554 5558 5561 5567 5578 5589 5603 5616 5629 5640 5654 5662 5671 5683 5693 5705 5716 5727 5736
5638 5629 5620 5612 5604 5595 5587 5578 5569 5563 5558 5552 5547 5542 5537 5532 5526 5522 5523 5522 5523 5525 5528 5531 5536 5541 5547 5550 5558 5569 5583 5598 5612 5627 5640 5653 5659 5669 5683 5695 5706 5717 5725
5627 5619 5610 5601 5591 5582 5573 5565 5556 5549 5543 5538 5532 5527 5522 5517 5514 5510 5506 5507 5507 5508 5509 5510 5515 5519 5525 5531 5538 5549 5560 5577 5594 5609 5627 5641 5648 5654 5671 5684 5697 5707 5716
5616 5607 5598 5588 5578 5568 5558 5549 5541 5535 5528 5523 5517 5511 5505 5499 5493 5490 5487 5483 5483 5481 5480 5483 5483 5490 5497 5504 5514 5528 5540 5555 5573 5591 5612 5626 5636 5646 5661 5674 5685 5696 5706
5606 5595 5584 5573 5562 5552 5544 5537 5527 5519 5512 5508 5502 5494 5486 5478 5471 5465 5462 5461 5458 5455 5446 5438 5434 5439 5458 5472 5486 5502 5517 5532 5550 5571 5593 5609 5621 5633 5648 5660 5674 5685 5694
5592 5581 5569 5557 5544 5535 5527 5520 5512 5503 5495 5491 5485 5476 5467 5456 5447 5439 5434 5430 5426 5421 5415 5408 5401 5402 5413 5433 5454 5473 5494 5511 5528 5550 5574 5592 5606 5621 5635 5647 5662 5674 5683
5576 5562 5550 5538 5526 5517 5510 5502 5492 5485 5478 5474 5466 5458 5447 5435 5424 5416 5408 5403 5397 5393 5387 5381 5377 5376 5382 5396 5421 5446 5468 5489 5507 5530 5555 5575 5592 5611 5623 5638 5650 5662 5672
5561 5546 5531 5520 5509 5500 5492 5483 5475 5467 5460 5455 5448 5439 5428 5415 5403 5393 5385 5379 5372 5368 5361 5355 5351 5350 5353 5367 5387 5415 5441 5464 5487 5508 5534 5559 5574 5598 5612 5627 5638 5652 5663
5545 5530 5516 5503 5491 5482 5475 5468 5459 5451 5444 5438 5430 5421 5409 5396 5383 5372 5364 5357 5350 5344 5338 5332 5327 5326 5329 5338 5359 5386 5414 5440 5466 5488 5515 5539 5561 5582 5598 5615 5628 5638 5653
5528 5515 5502 5489 5477 5467 5459 5452 5443 5434 5428 5421 5412 5402 5390 5376 5363 5353 5343 5337 5329 5324 5316 5309 5304 5303 5308 5317 5336 5361 5391 5418 5445 5467 5493 5520 5545 5564 5586 5603 5610 5624 5639
5512 5500 5488 5474 5463 5454 5447 5439 5430 5421 5415 5406 5396 5385 5372 5358 5344 5334 5325 5316 5308 5303 5294 5287 5282 5284 5290 5300 5317 5341 5371 5400 5427 5449 5476 5506 5525 5549 5570 5585 5598 5613 5629
5498 5487 5474 5461 5451 5443 5435 5427 5417 5409 5402 5392 5381 5369 5354 5340 5327 5317 5308 5298 5289 5281 5272 5266 5263 5266 5274 5285 5303 5329 5356 5385 5411 5439 5462 5487 5509 5536 5554 5572 5589 5605 5619
5487 5475 5463 5449 5440 5432 5425 5415 5406 5399 5390 5379 5367 5353 5338 5323 5311 5302 5291 5282 5274 5262 5254 5247 5247 5252 5262 5275 5294 5319 5344 5372 5394 5419 5445 5472 5493 5519 5539 5560 5579 5599 5612
5474 5461 5450 5439 5430 5421 5415 5404 5395 5388 5378 5367 5354 5339 5322 5308 5298 5287 5277 5268 5259 5247 5238 5233 5236 5243 5254 5267 5286 5311 5337 5360 5381 5409 5430 5457 5480 5505 5530 5550 5571 5585 5599
5461 5449 5439 5431 5420 5412 5402 5394 5386 5378 5367 5355 5341 5324 5308 5295 5285 5275 5266 5257 5245 5235 5226 5223 5229 5237 5247 5261 5279 5304 5328 5349 5371 5398 5425 5443 5466 5491 5519 5541 5559 5573 5585
5450 5439 5428 5421 5412 5403 5392 5383 5376 5367 5357 5344 5328 5312 5297 5285 5276 5266 5256 5248 5236 5226 5218 5217 5223 5231 5241 5255 5274 5297 5320 5341 5360 5387 5410 5430 5452 5480 5505 5526 5544 5558 5574
5438 5427 5419 5411 5403 5394 5384 5375 5367 5358 5348 5334 5318 5302 5287 5276 5268 5259 5250 5241 5230 5221 5215 5214 5218 5226 5238 5253 5270 5291 5316 5339 5361 5380 5392 5413 5435 5463 5488 5511 5529 5546 5562
5426 5416 5409 5401 5393 5385 5376 5367 5359 5350 5339 5325 5309 5293 5279 5269 5260 5252 5244 5235 5225 5218 5214 5213 5217 5224 5234 5247 5265 5286 5308 5327 5347 5365 5384 5407 5427 5451 5476 5495 5515 5536 5552
Wind_Speed
45 46 47 47 46 40 33 32 33 38 43 48 41 28 26 24 25 25 24 32 46 62 76 77 75 75 76 76 75 70 64 52 47 47 50 55 54 57 50 46 48 47 45
46 48 49 47 47 45 37 32 32 33 39 42 45 36 25 28 25 25 27 27 37 57 70 77 78 77 79 78 77 74 71 64 45 55 47 57 56 55 56 50 49 49 48
46 48 46 44 46 45 42 35 32 34 36 41 42 42 27 31 29 26 28 28 32 44 65 76 81 80 80 79 82 82 79 72 57 62 55 55 58 60 60 53 50 51 49
45 47 46 47 47 44 45 42 33 32 35 37 40 44 40 28 34 30 29 31 32 35 50 73 81 82 84 82 83 82 80 77 56 57 65 58 63 62 61 57 52 53 49
47 48 50 51 50 48 43 47 37 34 34 36 37 43 45 33 35 37 33 31 35 35 40 59 78 84 86 83 82 80 82 80 74 60 55 64 66 62 64 57 55 51 47
48 49 49 51 49 47 45 47 44 36 34 35 37 43 46 42 30 40 40 37 36 37 37 47 68 79 88 86 86 83 84 83 83 61 54 66 71 68 67 62 58 47 44
50 50 49 49 50 50 49 46 49 40 37 36 36 40 40 45 37 35 45 44 40 40 41 41 44 69 84 89 88 87 84 82 82 85 60 58 69 66 64 61 58 54 48
51 51 48 51 52 54 56 51 48 46 38 37 37 40 40 39 38 37 41 48 49 46 46 47 49 47 61 83 92 92 88 86 84 84 88 62 61 68 68 59 58 57 55
51 54 52 53 52 55 56 52 48 49 39 38 39 40 42 41 33 37 41 45 52 56 53 52 54 53 56 57 81 96 93 90 88 85 78 83 69 75 73 68 55 57 59
52 53 56 55 56 57 55 50 48 51 44 38 41 42 43 42 38 33 41 47 50 59 62 60 59 60 61 65 63 76 96 95 92 87 81 78 86 68 76 69 56 57 61
55 57 59 59 58 60 56 53 51 51 48 40 43 46 48 45 47 42 43 46 54 61 66 72 74 74 73 73 73 69 77 99 97 92 85 78 85 83 71 72 60 59 59
59 62 63 63 63 63 59 55 52 54 49 41 45 49 52 51 51 40 39 49 54 63 67 80 90 90 90 84 81 79 72 88 99 97 89 85 82 86 72 70 62 62 57
63 66 68 69 69 65 63 58 55 56 50 44 48 52 55 55 55 45 42 45 50 58 68 71 84 98 105 102 91 87 85 78 93 100 93 90 89 84 76 70 69 62 67
69 71 72 74 76 72 64 56 57 59 50 45 50 54 58 59 56 49 47 47 49 49 51 55 57 74 88 103 105 97 92 83 85 93 98 97 92 87 79 69 65 64 67
76 78 79 79 76 70 60 55 55 59 49 46 52 56 60 62 53 51 49 50 46 47 50 52 50 61 74 91 109 104 97 92 83 92 101 96 97 92 88 71 68 67 65
80 84 84 82 76 70 57 53 52 58 45 48 54 57 62 63 54 52 50 51 46 49 52 51 50 53 65 85 105 108 103 96 88 92 103 102 102 93 86 81 63 67 64
82 85 83 74 67 60 52 52 50 53 43 50 55 60 64 63 54 51 51 52 45 48 54 49 50 49 56 74 99 108 107 99 92 98 99 108 102 95 90 86 75 60 61
83 82 78 73 65 58 50 49 50 49 43 52 56 62 64 63 54 51 52 53 45 47 55 47 47 48 53 70 95 109 109 102 97 104 105 110 103 99 95 86 66 67 62
81 76 75 69 62 50 48 46 52 42 45 52 58 65 66 62 54 52 52 52 45 48 52 45 46 47 52 68 90 103 104 103 99 110 107 106 106 104 93 94 85 78 62
78 75 72 65 54 53 45 49 52 39 48 53 61 67 68 62 52 53 52 47 45 53 46 44 42 46 53 65 85 96 101 105 101 103 102 105 109 104 101 94 85 77 76
75 74 72 54 55 49 46 50 48 41 48 56 64 68 68 57 51 52 53 44 47 51 43 40 38 43 53 62 82 94 101 104 104 111 102 101 109 106 103 93 82 76 76
74 72 63 55 54 45 50 53 40 42 50 58 65 70 64 53 50 50 49 43 49 46 40 33 35 41 53 60 79 94 103 102 100 116 114 112 112 107 97 91 81 78 76
70 66 58 52 49 48 50 51 38 45 52 60 66 67 60 50 48 48 44 43 47 42 33 26 31 41 53 61 82 94 104 100 97 107 101 107 108 105 97 84 80 76 71
64 62 52 50 45 47 49 45 38 47 53 61 68 64 55 47 47 46 40 42 41 37 26 22 29 41 56 62 85 93 104 99 95 102 102 99 107 106 99 90 84 75 74
58 56 48 45 45 47 48 39 40 48 54 61 66 62 50 44 44 43 36 39 34 29 20 18 29 43 58 63 86 93 102 96 91 118 115 101 100 104 103 98 87 84 76
57 51 44 43 46 47 44 35 43 48 54 62 65 59 44 42 42 40 35 36 29 24 18 20 26 41 60 66 86 94 100 94 94 105 103 99 100 104 104 100 100 89 76
Wind_Direction
329 331 332 332 333 336 337 336 338 338 348 355 350 320 287 279 269 266 260 248 234 226 225 227 226 228 228 229 229 223 217 208 216 215 223 221 214 215 208 213 214 210 210
329 333 334 332 330 330 332 331 335 340 343 352 349 341 282 273 271 265 265 252 243 232 226 228 228 227 228 229 226 224 217 212 210 216 211 218 211 216 206 211 213 212 210
332 334 336 338 334 330 328 328 328 335 341 344 350 345 318 266 259 258 262 261 246 239 232 228 228 227 228 229 227 224 217 211 211 221 208 218 214 218 213 209 213 214 211
334 333 335 337 335 332 330 326 326 327 336 337 342 345 339 278 257 248 251 256 256 243 237 231 229 227 228 228 229 228 228 224 194 203 208 210 220 219 216 213 213 216 211
332 333 331 331 330 331 330 328 325 323 329 331 337 339 341 318 259 249 243 245 250 250 239 235 232 230 228 229 230 231 228 228 219 207 202 208 214 220 222 217 218 217 213
329 329 328 328 328 330 328 328 323 318 321 327 329 334 339 329 290 248 241 246 243 244 247 235 234 234 230 229 230 230 229 228 230 211 200 207 213 226 222 219 217 217 221
328 327 326 326 326 327 325 324 325 317 316 321 324 329 331 335 306 265 244 242 243 240 239 242 235 236 235 230 230 230 230 228 226 228 201 201 211 221 221 219 220 212 210
326 325 324 323 321 322 324 323 323 322 313 314 319 323 329 327 311 280 251 243 241 241 240 236 237 235 236 235 231 230 230 229 228 224 234 217 214 219 215 218 223 218 204
322 323 322 321 319 320 322 322 320 320 310 310 313 318 322 328 311 283 259 245 245 244 243 240 238 234 236 234 233 231 230 229 229 229 230 234 226 219 218 226 229 220 207
319 320 320 320 317 319 319 319 318 319 313 307 310 313 316 321 327 297 260 251 245 242 239 240 238 239 235 236 230 232 230 228 229 230 228 232 234 227 216 219 223 215 207
319 319 318 318 314 317 317 317 316 316 312 306 306 310 313 317 320 317 275 258 250 246 247 247 240 239 237 234 231 228 229 226 227 228 226 225 232 234 217 219 218 214 211
319 317 315 317 315 313 315 315 314 315 309 305 304 307 311 317 318 307 278 268 263 265 258 253 248 238 236 232 231 228 225 225 225 225 222 221 226 233 216 216 217 213 213
318 318 316 315 314 312 315 317 313 313 308 305 305 307 311 317 317 305 286 278 276 275 266 262 252 242 232 228 226 226 225 219 221 222 220 219 224 229 216 212 215 217 214
316 315 313 312 311 312 312 315 313 310 305 305 305 308 312 316 317 304 292 292 284 271 275 269 261 242 234 228 224 223 220 219 215 217 217 220 219 225 220 218 215 213 214
314 313 311 311 312 318 317 311 310 307 303 305 305 309 314 316 312 301 295 297 283 275 282 273 268 243 235 224 220 218 217 217 211 212 213 217 219 217 225 224 217 207 209
314 311 311 316 320 320 320 309 308 307 303 304 305 310 316 317 311 300 297 299 284 281 285 279 272 251 239 224 217 215 213 213 210 205 211 213 218 217 222 220 210 208 213
312 313 320 323 318 315 313 309 308 305 303 305 307 312 317 318 309 301 299 300 284 284 291 280 272 256 237 221 212 210 209 209 207 201 206 211 215 215 219 222 219 205 209
317 322 324 322 320 315 312 311 311 303 307 307 310 314 319 321 312 303 299 301 286 287 294 280 271 251 234 217 208 205 206 204 204 197 201 208 211 213 215 218 203 207 215
321 324 323 323 319 315 313 309 312 306 309 310 312 316 318 323 311 305 302 302 290 294 295 279 266 244 229 214 205 204 201 199 200 198 198 204 209 212 211 213 216 217 213
321 323 324 321 317 316 312 317 309 311 312 313 314 319 322 319 311 307 305 302 296 302 293 283 255 236 222 211 203 202 195 194 197 194 193 199 207 208 212 215 220 222 216
321 321 322 316 317 316 313 317 311 316 315 316 317 321 323 316 312 310 311 304 304 304 295 282 237 227 215 209 200 197 192 191 196 185 186 195 204 206 211 212 216 215 220
320 322 319 312 314 314 317 316 313 316 315 318 320 324 324 317 313 314 314 308 311 305 298 270 227 216 211 205 196 194 189 192 195 192 191 197 203 205 208 210 211 210 218
320 322 318 315 312 315 319 316 314 316 317 319 323 327 324 318 316 318 313 313 313 310 298 251 223 207 207 203 192 191 188 194 194 197 187 199 199 203 204 204 203 207 207
322 320 315 315 312 317 317 312 318 318 319 323 326 329 325 318 319 320 313 318 313 314 295 244 222 203 203 200 190 190 189 194 193 192 185 193 200 200 200 198 197 195 204
322 318 315 312 311 317 315 311 318 320 322 327 329 330 324 316 320 322 316 320 313 317 291 243 217 203 199 196 189 189 189 194 193 190 187 185 193 197 198 201 202 201 205
318 318 314 311 312 318 315 314 318 320 325 330 332 331 322 316 322 324 320 323 315 316 282 248 218 206 199 194 189 190 188 193 195 197 197 188 197 196 197 201 205 203 199